Location: Chinna Viriv?da
(16.5281°N, 81.0493°E)
Time: 14:26:40
(UTC+00:00)

NOSS 2-2 (D) - Pass Details

Date: 14 April 2026
Orbit: 382 x 1694 km, 63.3° (Epoch: 11 May)

Event Time Altitude Azimuth Distance (km) Brightness Sun altitude
Rises 13:43:11 0° 340° (NNW) 3,018 7.6 -13.0°
Reaches altitude 10° 13:45:12 10° 343° (NNW) 2,256 6.9 -13.5°
Maximum altitude 13:50:25 67° 67° (ENE) 1,015 4.4 -14.7°
Enters shadow 13:57:43 11° 148° (SSE) 3,133 6.7 -16.4°
